Home   Weather   Manchester   Past weeks

Flag for United Kingdom Past Weather in Manchester, England, United Kingdom — Yesterday and Last 2 Weeks

Now
37 °F

Clear.


Feels Like: 37 °F
Forecast: 33 / 47 °F
Wind: 1 mph from North

Location: Manchester Airport

Current Time: Dec 6, 2016 at 3:01:38 am

Latest Report: Dec 6, 2016 at 2:20 am


Visibility: 4 mi

Pressure: 30.27 "Hg

Humidity: 93%

Dew Point: 36 °F

Location of ManchesterLocation

Past Weather in Manchester — Graph

°F

Manchester Temperature Yesterday

Maximum temperature yesterday: 41 °F (at 12:50 pm)
Minimum temperature yesterday: 32 °F (at 7:50 am)
Average temperature yesterday: 36 °F

High & Low Weather Summary for the Past Weeks

 TemperatureHumidityPressure
High48 °F (Nov 25, 1:50 pm)100% (Nov 22, 6:20 am)30.57 "Hg (Nov 22, 6:20 am)
Low25 °F (Nov 26, 6:50 am)50% (Nov 28, 1:20 pm)29.09 "Hg (Nov 21, 5:20 pm)
Average39 °F86%30.21 "Hg
* Reported Nov 21 1:20 am — Dec 6 1:50 am, Manchester, Weather by CustomWeather, © 2016

Note: Actual official high and low records may vary slightly from our data, if they occured in-between our weather recording intervals... More about our weather records

Advertising

Manchester Weather History for the Previous 24 Hours

Scroll right to see more
 ConditionsComfort  
Time TempWeatherWind HumidityBarometerVisibility
1:50 am
Tue, Dec 6
37 °FClear.3 mph93%30.27 "Hg5 mi
1:20 am36 °FClear.1 mph93%30.27 "Hg5 mi
12:50 am36 °FClear.1 mph93%30.27 "Hg5 mi
12:20 am36 °FClear.1 mph93%30.27 "Hg6 mi
11:50 pm
Mon, Dec 5
36 °FClear.1 mph93%30.24 "Hg6 mi
11:20 pm36 °FClear.3 mph93%30.24 "Hg6 mi
10:50 pm37 °FClear.2 mph87%30.24 "Hg10 mi
10:20 pm36 °FClear.3 mph93%30.24 "Hg6 mi
9:50 pm34 °FClear.2 mph93%30.24 "Hg10 mi
9:20 pm32 °FClear.2 mph100%30.24 "Hg10 mi
8:50 pm32 °FClear.1 mph93%30.24 "Hg10 mi
8:20 pm32 °FClear.2 mph93%30.24 "Hg10 mi
7:50 pm34 °FClear.1 mph93%30.24 "Hg10 mi
7:20 pm37 °FClear.1 mph87%30.24 "Hg10 mi
6:50 pm36 °FClear.1 mph87%30.24 "Hg10 mi
6:20 pm36 °FClear.1 mph93%30.24 "Hg10 mi
5:50 pm37 °FClear.2 mph87%30.24 "Hg10 mi
5:20 pm37 °FClear.No wind93%30.24 "Hg10 mi
4:50 pm37 °FClear.1 mph93%30.24 "Hg5 mi
4:20 pm37 °FClear.2 mph93%30.21 "Hg5 mi
3:50 pm39 °FClear.1 mph87%30.21 "Hg6 mi
3:20 pm39 °FClear.2 mph87%30.21 "Hg6 mi
2:50 pm39 °FClear.3 mph87%30.21 "Hg6 mi
2:20 pm39 °FChilly.3 mph93%30.21 "HgN/A
1:50 pm41 °FClear.1 mph81%30.21 "Hg6 mi
1:20 pm41 °FQuite cool.1 mph81%30.24 "HgN/A
12:50 pm41 °FQuite cool.3 mph81%30.21 "HgN/A
12:20 pm39 °FPassing clouds.2 mph87%30.24 "Hg6 mi
11:50 am39 °FPassing clouds.2 mph81%30.24 "Hg6 mi
11:20 am39 °FPassing clouds.1 mph81%30.24 "Hg6 mi
10:50 am37 °FPassing clouds.2 mph81%30.24 "Hg6 mi
10:20 am34 °FPassing clouds.1 mph93%30.24 "Hg5 mi
9:50 am34 °FPassing clouds.2 mph87%30.24 "Hg6 mi
9:20 am32 °FPassing clouds.1 mph93%30.24 "Hg6 mi
8:50 am32 °FPassing clouds.3 mph93%30.24 "Hg6 mi
8:20 am32 °FPassing clouds.1 mph93%30.24 "HgN/A
7:50 am32 °FPassing clouds.2 mph93%30.24 "HgN/A
7:20 am36 °FPassing clouds.2 mph87%30.24 "HgN/A
6:50 am34 °FClear.1 mph93%30.24 "Hg10 mi
6:20 am36 °FClear.1 mph87%30.24 "Hg10 mi
5:50 am36 °FClear.2 mph87%30.21 "Hg10 mi
5:20 am36 °FClear.3 mph87%30.21 "Hg10 mi
4:50 am36 °FPassing clouds.7 mph87%30.21 "HgN/A
4:20 am34 °FClear.7 mph93%30.21 "Hg10 mi
3:50 am34 °FClear.3 mph87%30.24 "Hg10 mi
3:20 am36 °FClear.3 mph87%30.24 "Hg10 mi
Weather by CustomWeather, © 2016

See weather overviewHow to use our weather pages